Time,TemperatureF,DewpointF,PressureIn,WindDirection,WindDirectionDegrees,WindSpeedMPH,WindSpeedGustMPH,Humidity,HourlyPrecipIn,Conditions,Clouds,dailyrainin,SoftwareType,DateUTC
2013-09-13 00:01:00,68.5,65.1,30.04,NNW,336,1.0,3.0,89,0.00,,,0.00,WeatherCatV1.20B785,2013-09-13 05:01:00,
2013-09-13 00:06:00,68.5,65.1,30.04,NNE,30,0.0,6.0,89,0.00,,,0.00,WeatherCatV1.20B785,2013-09-13 05:06:00,
2013-09-13 00:11:00,68.6,64.9,30.04,NNW,344,2.0,2.0,88,0.00,,,0.00,WeatherCatV1.20B785,2013-09-13 05:11:00,
2013-09-13 00:16:00,68.7,64.7,30.04,NNE,19,2.0,7.0,87,0.00,,,0.00,WeatherCatV1.20B785,2013-09-13 05:16:00,
2013-09-13 00:21:00,68.9,64.5,30.04,North,9,2.0,4.0,86,0.00,,,0.00,WeatherCatV1.20B785,2013-09-13 05:21:00,
2013-09-13 00:26:00,69.1,64.4,30.04,NW,323,0.0,5.0,85,0.00,,,0.00,WeatherCatV1.20B785,2013-09-13 05:26:00,
2013-09-13 00:31:00,69.3,64.2,30.04,WNW,303,1.0,7.0,84,0.00,,,0.00,WeatherCatV1.20B785,2013-09-13 05:31:00,
2013-09-13 00:36:00,69.5,64.1,30.04,ESE,103,1.0,6.0,83,0.00,,,0.00,WeatherCatV1.20B785,2013-09-13 05:36:00,
2013-09-13 00:41:00,69.5,63.8,30.04,NE,43,5.0,5.0,82,0.00,,,0.00,WeatherCatV1.20B785,2013-09-13 05:41:00,
2013-09-13 00:46:00,69.6,63.8,30.05,West,279,3.0,5.0,82,0.00,,,0.00,WeatherCatV1.20B785,2013-09-13 05:46:00,
2013-09-13 00:51:00,69.5,63.4,30.04,North,355,1.0,5.0,81,0.00,,,0.00,WeatherCatV1.20B785,2013-09-13 05:51:00,
2013-09-13 00:56:00,69.5,63.4,30.05,NE,51,1.0,4.0,81,0.00,,,0.00,WeatherCatV1.20B785,2013-09-13 05:56:00,
2013-09-13 01:01:00,69.4,63.0,30.05,NE,34,1.0,3.0,80,0.00,,,0.00,WeatherCatV1.20B785,2013-09-13 06:01:00,
2013-09-13 01:06:00,69.3,62.5,30.05,ENE,65,0.0,8.0,79,0.00,,,0.00,WeatherCatV1.20B785,2013-09-13 06:06:00,
2013-09-13 01:11:00,69.1,61.9,30.05,ENE,71,1.0,7.0,78,0.00,,,0.00,WeatherCatV1.20B785,2013-09-13 06:11:00,
2013-09-13 01:16:00,69.0,61.8,30.05,North,0,1.0,6.0,78,0.00,,,0.00,WeatherCatV1.20B785,2013-09-13 06:16:00,
2013-09-13 01:21:00,68.9,61.4,30.05,NE,49,1.0,5.0,77,0.00,,,0.00,WeatherCatV1.20B785,2013-09-13 06:21:00,
2013-09-13 01:26:00,68.7,60.8,30.05,NE,34,3.0,5.0,76,0.00,,,0.00,WeatherCatV1.20B785,2013-09-13 06:26:00,
2013-09-13 01:31:00,68.6,60.3,30.05,ENE,57,0.0,8.0,75,0.00,,,0.00,WeatherCatV1.20B785,2013-09-13 06:31:00,
2013-09-13 01:36:00,68.5,60.2,30.05,NE,40,3.0,5.0,75,0.00,,,0.00,WeatherCatV1.20B785,2013-09-13 06:36:00,
2013-09-13 01:41:00,68.4,59.8,30.05,NE,43,2.0,6.0,74,0.00,,,0.00,WeatherCatV1.20B785,2013-09-13 06:41:00,
2013-09-13 01:46:00,68.4,59.8,30.05,NE,55,3.0,4.0,74,0.00,,,0.00,WeatherCatV1.20B785,2013-09-13 06:46:00,
2013-09-13 01:51:00,68.3,59.3,30.06,ENE,71,3.0,7.0,73,0.00,,,0.00,WeatherCatV1.20B785,2013-09-13 06:51:00,
2013-09-13 01:56:00,68.3,59.3,30.06,ENE,65,1.0,3.0,73,0.00,,,0.00,WeatherCatV1.20B785,2013-09-13 06:56:00,
2013-09-13 02:01:00,68.3,58.9,30.06,NNE,33,4.0,6.0,72,0.00,,,0.00,WeatherCatV1.20B785,2013-09-13 07:01:00,
2013-09-13 02:06:00,68.2,58.4,30.06,ENE,76,8.0,9.0,71,0.00,,,0.00,WeatherCatV1.20B785,2013-09-13 07:06:00,
2013-09-13 02:11:00,68.3,58.5,30.05,NNE,19,1.0,4.0,71,0.00,,,0.00,WeatherCatV1.20B785,2013-09-13 07:11:00,
2013-09-13 02:16:00,68.2,58.0,30.05,NE,45,4.0,10.0,70,0.00,,,0.00,WeatherCatV1.20B785,2013-09-13 07:16:00,
2013-09-13 02:21:00,68.1,57.9,30.05,NNE,26,2.0,6.0,70,0.00,,,0.00,WeatherCatV1.20B785,2013-09-13 07:21:00,
2013-09-13 02:26:00,68.1,57.9,30.05,NNE,26,5.0,9.0,70,0.00,,,0.00,WeatherCatV1.20B785,2013-09-13 07:26:00,
2013-09-13 02:31:00,68.0,57.4,30.05,East,93,1.0,6.0,69,0.00,,,0.00,WeatherCatV1.20B785,2013-09-13 07:31:00,
2013-09-13 02:36:00,67.9,57.3,30.05,NNE,31,4.0,6.0,69,0.00,,,0.00,WeatherCatV1.20B785,2013-09-13 07:36:00,
2013-09-13 02:41:00,67.7,57.2,30.05,ENE,65,4.0,10.0,69,0.00,,,0.00,WeatherCatV1.20B785,2013-09-13 07:41:00,
2013-09-13 02:46:00,67.7,56.8,30.05,NNE,23,3.0,8.0,68,0.00,,,0.00,WeatherCatV1.20B785,2013-09-13 07:46:00,
2013-09-13 02:51:00,67.6,56.7,30.05,ENE,60,4.0,7.0,68,0.00,,,0.00,WeatherCatV1.20B785,2013-09-13 07:51:00,
2013-09-13 02:56:00,67.5,56.2,30.05,NE,34,2.0,7.0,67,0.00,,,0.00,WeatherCatV1.20B785,2013-09-13 07:56:00,
2013-09-13 03:01:00,67.4,56.0,30.05,NE,41,6.0,9.0,67,0.00,,,0.00,WeatherCatV1.20B785,2013-09-13 08:01:00,
2013-09-13 03:06:00,67.2,55.5,30.05,ENE,62,4.0,7.0,66,0.00,,,0.00,WeatherCatV1.20B785,2013-09-13 08:06:00,
2013-09-13 03:11:00,67.0,54.8,30.05,ENE,76,7.0,7.0,65,0.00,,,0.00,WeatherCatV1.20B785,2013-09-13 08:11:00,
2013-09-13 03:16:00,66.9,54.3,30.05,NE,52,4.0,7.0,64,0.00,,,0.00,WeatherCatV1.20B785,2013-09-13 08:16:00,
2013-09-13 03:21:00,66.8,54.7,30.05,East,92,0.0,8.0,65,0.00,,,0.00,WeatherCatV1.20B785,2013-09-13 08:21:00,
2013-09-13 03:26:00,66.7,54.5,30.05,ENE,70,8.0,11.0,65,0.00,,,0.00,WeatherCatV1.20B785,2013-09-13 08:26:00,
2013-09-13 03:31:00,66.5,53.9,30.05,NE,49,2.0,7.0,64,0.00,,,0.00,WeatherCatV1.20B785,2013-09-13 08:31:00,
2013-09-13 03:36:00,66.3,54.2,30.05,NNE,27,3.0,6.0,65,0.00,,,0.00,WeatherCatV1.20B785,2013-09-13 08:36:00,
2013-09-13 03:41:00,66.1,54.0,30.05,NE,49,1.0,4.0,65,0.00,,,0.00,WeatherCatV1.20B785,2013-09-13 08:41:00,
2013-09-13 03:46:00,65.9,53.8,30.05,NE,41,1.0,4.0,65,0.00,,,0.00,WeatherCatV1.20B785,2013-09-13 08:46:00,
2013-09-13 03:51:00,65.7,53.6,30.05,ENE,65,3.0,7.0,65,0.00,,,0.00,WeatherCatV1.20B785,2013-09-13 08:51:00,
2013-09-13 03:56:00,65.4,53.3,30.05,NE,55,2.0,4.0,65,0.00,,,0.00,WeatherCatV1.20B785,2013-09-13 08:56:00,
2013-09-13 04:01:00,65.2,53.5,30.05,NNW,339,1.0,8.0,66,0.00,,,0.00,WeatherCatV1.20B785,2013-09-13 09:01:00,
2013-09-13 04:06:00,64.9,53.3,30.05,East,86,1.0,8.0,66,0.00,,,0.00,WeatherCatV1.20B785,2013-09-13 09:06:00,
2013-09-13 04:11:00,64.8,53.2,30.05,NE,51,1.0,5.0,66,0.00,,,0.00,WeatherCatV1.20B785,2013-09-13 09:11:00,
2013-09-13 04:16:00,64.6,53.0,30.05,ENE,58,1.0,4.0,66,0.00,,,0.00,WeatherCatV1.20B785,2013-09-13 09:16:00,
2013-09-13 04:21:00,64.4,52.8,30.05,NE,50,3.0,8.0,66,0.00,,,0.00,WeatherCatV1.20B785,2013-09-13 09:21:00,
2013-09-13 04:26:00,64.3,52.7,30.06,SE,127,0.0,5.0,66,0.00,,,0.00,WeatherCatV1.20B785,2013-09-13 09:26:00,
2013-09-13 04:31:00,64.1,52.5,30.06,ENE,59,1.0,4.0,66,0.00,,,0.00,WeatherCatV1.20B785,2013-09-13 09:31:00,
2013-09-13 04:36:00,64.0,52.4,30.06,NE,46,3.0,9.0,66,0.00,,,0.00,WeatherCatV1.20B785,2013-09-13 09:36:00,
2013-09-13 04:41:00,63.9,52.7,30.06,ENE,68,7.0,9.0,67,0.00,,,0.00,WeatherCatV1.20B785,2013-09-13 09:41:00,
2013-09-13 04:46:00,63.8,52.6,30.05,East,85,5.0,7.0,67,0.00,,,0.00,WeatherCatV1.20B785,2013-09-13 09:46:00,
2013-09-13 04:51:00,63.7,52.5,30.06,NE,53,0.0,4.0,67,0.00,,,0.00,WeatherCatV1.20B785,2013-09-13 09:51:00,
2013-09-13 04:56:00,63.6,52.4,30.05,NNE,20,3.0,4.0,67,0.00,,,0.00,WeatherCatV1.20B785,2013-09-13 09:56:00,
2013-09-13 05:01:00,63.4,52.2,30.05,ENE,62,4.0,9.0,67,0.00,,,0.00,WeatherCatV1.20B785,2013-09-13 10:01:00,
2013-09-13 05:06:00,63.3,52.2,30.05,ENE,63,2.0,4.0,67,0.00,,,0.00,WeatherCatV1.20B785,2013-09-13 10:06:00,
2013-09-13 05:11:00,63.2,52.5,30.05,ENE,58,3.0,3.0,68,0.00,,,0.00,WeatherCatV1.20B785,2013-09-13 10:11:00,
2013-09-13 05:16:00,63.1,52.4,30.05,NNW,332,0.0,4.0,68,0.00,,,0.00,WeatherCatV1.20B785,2013-09-13 10:16:00,
2013-09-13 05:21:00,62.9,52.2,30.06,East,82,0.0,2.0,68,0.00,,,0.00,WeatherCatV1.20B785,2013-09-13 10:21:00,
2013-09-13 05:26:00,62.8,52.1,30.06,NNW,333,0.0,3.0,68,0.00,,,0.00,WeatherCatV1.20B785,2013-09-13 10:26:00,
2013-09-13 05:31:00,62.7,52.0,30.06,ENE,67,2.0,6.0,68,0.00,,,0.00,WeatherCatV1.20B785,2013-09-13 10:31:00,
2013-09-13 05:36:00,62.5,52.2,30.06,ENE,63,4.0,6.0,69,0.00,,,0.00,WeatherCatV1.20B785,2013-09-13 10:36:00,
2013-09-13 05:41:00,62.5,52.2,30.06,NE,38,0.0,2.0,69,0.00,,,0.00,WeatherCatV1.20B785,2013-09-13 10:41:00,
2013-09-13 05:46:00,62.4,52.1,30.07,ENE,65,5.0,8.0,69,0.00,,,0.00,WeatherCatV1.20B785,2013-09-13 10:46:00,
2013-09-13 05:51:00,62.4,52.1,30.07,ENE,69,0.0,4.0,69,0.00,,,0.00,WeatherCatV1.20B785,2013-09-13 10:51:00,
2013-09-13 05:56:00,62.3,52.0,30.06,ENE,72,0.0,5.0,69,0.00,,,0.00,WeatherCatV1.20B785,2013-09-13 10:56:00,
2013-09-13 06:01:00,62.2,51.9,30.07,North,355,0.0,1.0,69,0.00,,,0.00,WeatherCatV1.20B785,2013-09-13 11:01:00,
2013-09-13 06:06:00,62.1,51.8,30.07,NE,43,0.0,2.0,69,0.00,,,0.00,WeatherCatV1.20B785,2013-09-13 11:06:00,
2013-09-13 06:11:00,61.9,52.0,30.07,NE,36,0.0,1.0,70,0.00,,,0.00,WeatherCatV1.20B785,2013-09-13 11:11:00,
2013-09-13 06:16:00,61.8,51.9,30.07,North,5,0.0,1.0,70,0.00,,,0.00,WeatherCatV1.20B785,2013-09-13 11:16:00,
2013-09-13 06:21:00,61.6,51.7,30.08,ENE,71,1.0,1.0,70,0.00,,,0.00,WeatherCatV1.20B785,2013-09-13 11:21:00,
2013-09-13 06:26:00,61.4,51.9,30.07,NE,39,0.0,4.0,71,0.00,,,0.00,WeatherCatV1.20B785,2013-09-13 11:26:00,
2013-09-13 06:31:00,61.2,51.7,30.08,NNE,30,0.0,0.0,71,0.00,,,0.00,WeatherCatV1.20B785,2013-09-13 11:31:00,
2013-09-13 06:36:00,61.0,51.5,30.08,NNE,30,0.0,0.0,71,0.00,,,0.00,WeatherCatV1.20B785,2013-09-13 11:36:00,
2013-09-13 06:41:00,60.8,51.7,30.08,NNE,30,0.0,0.0,72,0.00,,,0.00,WeatherCatV1.20B785,2013-09-13 11:41:00,
2013-09-13 06:46:00,60.6,51.5,30.08,NNE,30,0.0,0.0,72,0.00,,,0.00,WeatherCatV1.20B785,2013-09-13 11:46:00,
2013-09-13 06:51:00,60.4,51.7,30.08,NNE,30,0.0,0.0,73,0.00,,,0.00,WeatherCatV1.20B785,2013-09-13 11:51:00,
2013-09-13 06:56:00,60.3,52.0,30.08,NNE,30,0.0,0.0,74,0.00,,,0.00,WeatherCatV1.20B785,2013-09-13 11:56:00,
2013-09-13 07:01:00,60.0,52.0,30.08,NNE,30,0.0,0.0,75,0.00,,,0.00,WeatherCatV1.20B785,2013-09-13 12:01:00,
2013-09-13 07:06:00,59.8,52.2,30.08,NNE,30,0.0,0.0,76,0.00,,,0.00,WeatherCatV1.20B785,2013-09-13 12:06:00,
2013-09-13 07:11:00,59.6,52.0,30.08,NNE,30,0.0,0.0,76,0.00,,,0.00,WeatherCatV1.20B785,2013-09-13 12:11:00,
2013-09-13 07:16:00,59.4,51.8,30.08,NNE,30,0.0,0.0,76,0.00,,,0.00,WeatherCatV1.20B785,2013-09-13 12:16:00,
2013-09-13 07:21:00,59.2,51.6,30.08,NNE,30,0.0,0.0,76,0.00,,,0.00,WeatherCatV1.20B785,2013-09-13 12:21:00,
2013-09-13 07:26:00,59.0,51.4,30.09,NNE,30,0.0,0.0,76,0.00,,,0.00,WeatherCatV1.20B785,2013-09-13 12:26:00,
2013-09-13 07:31:00,59.0,52.2,30.09,NNE,30,0.0,0.0,78,0.00,,,0.00,WeatherCatV1.20B785,2013-09-13 12:31:00,
2013-09-13 07:36:00,58.9,52.0,30.09,NNE,30,0.0,0.0,78,0.00,,,0.00,WeatherCatV1.20B785,2013-09-13 12:36:00,
2013-09-13 07:41:00,58.9,52.4,30.09,NNE,30,0.0,0.0,79,0.00,,,0.00,WeatherCatV1.20B785,2013-09-13 12:41:00,
2013-09-13 07:46:00,59.0,52.5,30.09,NNE,30,0.0,0.0,79,0.00,,,0.00,WeatherCatV1.20B785,2013-09-13 12:46:00,
2013-09-13 07:51:00,59.1,52.9,30.09,NNE,30,0.0,0.0,80,0.00,,,0.00,WeatherCatV1.20B785,2013-09-13 12:51:00,
2013-09-13 07:56:00,59.3,53.1,30.09,East,79,0.0,0.0,80,0.00,,,0.00,WeatherCatV1.20B785,2013-09-13 12:56:00,
2013-09-13 08:01:00,59.4,53.2,30.09,ENE,68,0.0,0.0,80,0.00,,,0.00,WeatherCatV1.20B785,2013-09-13 13:01:00,
2013-09-13 08:06:00,59.6,53.1,30.09,ENE,67,2.0,2.0,79,0.00,,,0.00,WeatherCatV1.20B785,2013-09-13 13:06:00,
2013-09-13 08:11:00,59.8,52.9,30.09,ENE,69,0.0,2.0,78,0.00,,,0.00,WeatherCatV1.20B785,2013-09-13 13:11:00,
2013-09-13 08:16:00,60.2,53.3,30.10,NE,49,0.0,4.0,78,0.00,,,0.00,WeatherCatV1.20B785,2013-09-13 13:16:00,
2013-09-13 08:21:00,60.6,53.3,30.09,ENE,63,2.0,4.0,77,0.00,,,0.00,WeatherCatV1.20B785,2013-09-13 13:21:00,
2013-09-13 08:26:00,61.2,53.6,30.10,ENE,67,4.0,4.0,76,0.00,,,0.00,WeatherCatV1.20B785,2013-09-13 13:26:00,
2013-09-13 08:31:00,61.7,53.3,30.10,ENE,57,3.0,7.0,74,0.00,,,0.00,WeatherCatV1.20B785,2013-09-13 13:31:00,
2013-09-13 08:36:00,62.4,54.0,30.10,ENE,65,3.0,3.0,74,0.00,,,0.00,WeatherCatV1.20B785,2013-09-13 13:36:00,
2013-09-13 08:41:00,62.8,54.0,30.09,ENE,67,1.0,5.0,73,0.00,,,0.00,WeatherCatV1.20B785,2013-09-13 13:41:00,
2013-09-13 08:46:00,63.1,53.9,30.09,NE,48,7.0,7.0,72,0.00,,,0.00,WeatherCatV1.20B785,2013-09-13 13:46:00,
2013-09-13 08:51:00,63.3,53.7,30.10,ENE,59,5.0,5.0,71,0.00,,,0.00,WeatherCatV1.20B785,2013-09-13 13:51:00,
2013-09-13 08:56:00,63.4,53.4,30.10,ENE,67,2.0,6.0,70,0.00,,,0.00,WeatherCatV1.20B785,2013-09-13 13:56:00,
2013-09-13 09:01:00,63.5,53.5,30.10,ENE,57,1.0,7.0,70,0.00,,,0.00,WeatherCatV1.20B785,2013-09-13 14:01:00,
2013-09-13 09:06:00,63.6,54.0,30.10,ENE,58,3.0,4.0,71,0.00,,,0.00,WeatherCatV1.20B785,2013-09-13 14:06:00,
2013-09-13 09:11:00,63.7,53.7,30.10,East,89,3.0,5.0,70,0.00,,,0.00,WeatherCatV1.20B785,2013-09-13 14:11:00,
2013-09-13 09:16:00,63.9,53.9,30.10,North,355,0.0,2.0,70,0.00,,,0.00,WeatherCatV1.20B785,2013-09-13 14:16:00,
2013-09-13 09:21:00,64.1,54.1,30.10,NE,45,2.0,5.0,70,0.00,,,0.00,WeatherCatV1.20B785,2013-09-13 14:21:00,
2013-09-13 09:26:00,64.4,54.4,30.10,ENE,65,0.0,2.0,70,0.00,,,0.00,WeatherCatV1.20B785,2013-09-13 14:26:00,
2013-09-13 09:31:00,64.7,54.7,30.10,ESE,113,3.0,4.0,70,0.00,,,0.00,WeatherCatV1.20B785,2013-09-13 14:31:00,
2013-09-13 09:36:00,65.0,54.6,30.10,ENE,78,4.0,4.0,69,0.00,,,0.00,WeatherCatV1.20B785,2013-09-13 14:36:00,
2013-09-13 09:41:00,65.3,54.5,30.10,ENE,71,1.0,7.0,68,0.00,,,0.00,WeatherCatV1.20B785,2013-09-13 14:41:00,
2013-09-13 09:46:00,65.5,54.7,30.10,ENE,67,1.0,3.0,68,0.00,,,0.00,WeatherCatV1.20B785,2013-09-13 14:46:00,
2013-09-13 09:51:00,65.9,54.2,30.10,East,90,3.0,7.0,66,0.00,,,0.00,WeatherCatV1.20B785,2013-09-13 14:51:00,
2013-09-13 09:56:00,66.4,54.7,30.11,SSE,163,3.0,8.0,66,0.00,,,0.00,WeatherCatV1.20B785,2013-09-13 14:56:00,
2013-09-13 10:01:00,66.8,54.7,30.11,ENE,60,3.0,7.0,65,0.00,,,0.00,WeatherCatV1.20B785,2013-09-13 15:01:00,
2013-09-13 10:06:00,67.2,55.0,30.11,ESE,113,5.0,5.0,65,0.00,,,0.00,WeatherCatV1.20B785,2013-09-13 15:06:00,
2013-09-13 10:11:00,67.5,54.0,30.11,East,86,5.0,9.0,62,0.00,,,0.00,WeatherCatV1.20B785,2013-09-13 15:11:00,
2013-09-13 10:16:00,67.8,54.3,30.11,NE,52,5.0,8.0,62,0.00,,,0.00,WeatherCatV1.20B785,2013-09-13 15:16:00,
2013-09-13 10:21:00,68.1,54.6,30.11,East,98,2.0,3.0,62,0.00,,,0.00,WeatherCatV1.20B785,2013-09-13 15:21:00,
2013-09-13 10:26:00,68.6,54.2,30.11,NE,44,4.0,7.0,60,0.00,,,0.00,WeatherCatV1.20B785,2013-09-13 15:26:00,
2013-09-13 10:31:00,68.8,53.9,30.11,ENE,58,2.0,5.0,59,0.00,,,0.00,WeatherCatV1.20B785,2013-09-13 15:31:00,
2013-09-13 10:36:00,69.1,55.5,30.11,East,94,2.0,3.0,62,0.00,,,0.00,WeatherCatV1.20B785,2013-09-13 15:36:00,
2013-09-13 10:41:00,69.2,54.7,30.10,ENE,61,3.0,7.0,60,0.00,,,0.00,WeatherCatV1.20B785,2013-09-13 15:41:00,
2013-09-13 10:46:00,69.2,55.2,30.11,ENE,69,3.0,7.0,61,0.00,,,0.00,WeatherCatV1.20B785,2013-09-13 15:46:00,
2013-09-13 10:51:00,69.3,55.3,30.11,East,82,2.0,4.0,61,0.00,,,0.00,WeatherCatV1.20B785,2013-09-13 15:51:00,
2013-09-13 10:56:00,69.6,55.1,30.11,SE,128,2.0,4.0,60,0.00,,,0.00,WeatherCatV1.20B785,2013-09-13 15:56:00,
2013-09-13 11:01:00,70.4,54.9,30.11,ESE,105,1.0,4.0,58,0.00,,,0.00,WeatherCatV1.20B785,2013-09-13 16:01:00,
2013-09-13 11:06:00,70.7,54.7,30.11,SE,132,3.0,6.0,57,0.00,,,0.00,WeatherCatV1.20B785,2013-09-13 16:06:00,
2013-09-13 11:11:00,71.1,54.6,30.10,NNW,339,5.0,6.0,56,0.00,,,0.00,WeatherCatV1.20B785,2013-09-13 16:11:00,
2013-09-13 11:16:00,71.7,54.7,30.10,NNW,342,6.0,8.0,55,0.00,,,0.00,WeatherCatV1.20B785,2013-09-13 16:16:00,
2013-09-13 11:21:00,72.4,55.8,30.10,NE,38,5.0,9.0,56,0.00,,,0.00,WeatherCatV1.20B785,2013-09-13 16:21:00,
2013-09-13 11:26:00,72.8,53.6,30.10,East,83,5.0,7.0,51,0.00,,,0.00,WeatherCatV1.20B785,2013-09-13 16:26:00,
2013-09-13 11:31:00,73.1,54.4,30.10,ENE,67,2.0,11.0,52,0.00,,,0.00,WeatherCatV1.20B785,2013-09-13 16:31:00,
2013-09-13 11:36:00,73.4,55.2,30.10,ENE,69,3.0,7.0,53,0.00,,,0.00,WeatherCatV1.20B785,2013-09-13 16:36:00,
2013-09-13 11:41:00,73.7,54.4,30.10,NE,49,5.0,9.0,51,0.00,,,0.00,WeatherCatV1.20B785,2013-09-13 16:41:00,
2013-09-13 11:46:00,73.3,53.5,30.10,ENE,59,3.0,3.0,50,0.00,,,0.00,WeatherCatV1.20B785,2013-09-13 16:46:00,
2013-09-13 11:51:00,73.4,54.7,30.10,North,10,1.0,5.0,52,0.00,,,0.00,WeatherCatV1.20B785,2013-09-13 16:51:00,
2013-09-13 11:56:00,73.4,53.6,30.09,NE,51,4.0,8.0,50,0.00,,,0.00,WeatherCatV1.20B785,2013-09-13 16:56:00,
2013-09-13 12:01:00,73.8,55.1,30.09,NE,49,4.0,6.0,52,0.00,,,0.00,WeatherCatV1.20B785,2013-09-13 17:01:00,
2013-09-13 12:06:00,73.9,53.5,30.09,North,0,1.0,3.0,49,0.00,,,0.00,WeatherCatV1.20B785,2013-09-13 17:06:00,
2013-09-13 12:11:00,74.1,54.8,30.08,NNW,344,9.0,9.0,51,0.00,,,0.00,WeatherCatV1.20B785,2013-09-13 17:11:00,
2013-09-13 12:16:00,74.6,55.3,30.08,NE,38,4.0,8.0,51,0.00,,,0.00,WeatherCatV1.20B785,2013-09-13 17:16:00,
2013-09-13 12:21:00,74.7,53.7,30.08,ENE,72,9.0,11.0,48,0.00,,,0.00,WeatherCatV1.20B785,2013-09-13 17:21:00,
2013-09-13 12:26:00,74.7,54.2,30.08,ENE,62,5.0,9.0,49,0.00,,,0.00,WeatherCatV1.20B785,2013-09-13 17:26:00,
2013-09-13 12:31:00,74.7,54.2,30.08,NE,44,3.0,4.0,49,0.00,,,0.00,WeatherCatV1.20B785,2013-09-13 17:31:00,
2013-09-13 12:36:00,74.6,54.2,30.08,North,350,2.0,7.0,49,0.00,,,0.00,WeatherCatV1.20B785,2013-09-13 17:36:00,
2013-09-13 12:41:00,74.2,54.3,30.08,North,11,2.0,8.0,50,0.00,,,0.00,WeatherCatV1.20B785,2013-09-13 17:41:00,
2013-09-13 12:46:00,73.9,53.5,30.07,ENE,69,2.0,8.0,49,0.00,,,0.00,WeatherCatV1.20B785,2013-09-13 17:46:00,
2013-09-13 12:51:00,73.9,54.1,30.07,NNE,32,3.0,6.0,50,0.00,,,0.00,WeatherCatV1.20B785,2013-09-13 17:51:00,
2013-09-13 12:56:00,73.7,53.3,30.07,ESE,123,3.0,5.0,49,0.00,,,0.00,WeatherCatV1.20B785,2013-09-13 17:56:00,
2013-09-13 13:01:00,73.8,55.1,30.07,North,11,5.0,5.0,52,0.00,,,0.00,WeatherCatV1.20B785,2013-09-13 18:01:00,
2013-09-13 13:06:00,74.5,55.2,30.07,North,355,5.0,8.0,51,0.00,,,0.00,WeatherCatV1.20B785,2013-09-13 18:06:00,
2013-09-13 13:11:00,75.0,55.1,30.07,North,350,0.0,3.0,50,0.00,,,0.00,WeatherCatV1.20B785,2013-09-13 18:11:00,
2013-09-13 13:16:00,75.5,54.4,30.07,NNW,339,7.0,10.0,48,0.00,,,0.00,WeatherCatV1.20B785,2013-09-13 18:16:00,
2013-09-13 13:21:00,75.3,54.2,30.06,NNE,26,0.0,8.0,48,0.00,,,0.00,WeatherCatV1.20B785,2013-09-13 18:21:00,
2013-09-13 13:26:00,75.0,55.1,30.06,ESE,117,2.0,4.0,50,0.00,,,0.00,WeatherCatV1.20B785,2013-09-13 18:26:00,
2013-09-13 13:31:00,74.9,55.5,30.06,NNE,32,3.0,5.0,51,0.00,,,0.00,WeatherCatV1.20B785,2013-09-13 18:31:00,
2013-09-13 13:36:00,74.8,53.8,30.06,NNE,26,1.0,6.0,48,0.00,,,0.00,WeatherCatV1.20B785,2013-09-13 18:36:00,
2013-09-13 13:41:00,74.2,53.2,30.05,SE,126,2.0,5.0,48,0.00,,,0.00,WeatherCatV1.20B785,2013-09-13 18:41:00,
2013-09-13 13:46:00,74.1,54.2,30.05,NNW,339,4.0,4.0,50,0.00,,,0.00,WeatherCatV1.20B785,2013-09-13 18:46:00,
2013-09-13 13:51:00,74.2,54.9,30.05,NNW,333,3.0,5.0,51,0.00,,,0.00,WeatherCatV1.20B785,2013-09-13 18:51:00,
2013-09-13 13:56:00,74.4,54.5,30.05,NNE,17,0.0,9.0,50,0.00,,,0.00,WeatherCatV1.20B785,2013-09-13 18:56:00,
2013-09-13 14:01:00,74.7,55.3,30.04,NE,42,0.0,4.0,51,0.00,,,0.00,WeatherCatV1.20B785,2013-09-13 19:01:00,
2013-09-13 14:06:00,75.0,56.2,30.04,ENE,61,0.0,6.0,52,0.00,,,0.00,WeatherCatV1.20B785,2013-09-13 19:06:00,
2013-09-13 14:11:00,75.4,53.8,30.05,ENE,76,7.0,8.0,47,0.00,,,0.00,WeatherCatV1.20B785,2013-09-13 19:11:00,
2013-09-13 14:16:00,75.9,54.8,30.04,North,5,4.0,8.0,48,0.00,,,0.00,WeatherCatV1.20B785,2013-09-13 19:16:00,
2013-09-13 14:21:00,76.3,54.0,30.04,East,79,2.0,6.0,46,0.00,,,0.00,WeatherCatV1.20B785,2013-09-13 19:21:00,
2013-09-13 14:26:00,76.1,52.6,30.04,NE,53,6.0,11.0,44,0.00,,,0.00,WeatherCatV1.20B785,2013-09-13 19:26:00,
2013-09-13 14:31:00,75.8,53.5,30.04,NE,44,2.0,9.0,46,0.00,,,0.00,WeatherCatV1.20B785,2013-09-13 19:31:00,
2013-09-13 14:36:00,75.8,54.1,30.04,North,355,9.0,9.0,47,0.00,,,0.00,WeatherCatV1.20B785,2013-09-13 19:36:00,
2013-09-13 14:41:00,75.5,54.4,30.04,NNW,345,3.0,5.0,48,0.00,,,0.00,WeatherCatV1.20B785,2013-09-13 19:41:00,
2013-09-13 14:46:00,75.3,54.8,30.04,ESE,102,3.0,3.0,49,0.00,,,0.00,WeatherCatV1.20B785,2013-09-13 19:46:00,
2013-09-13 14:51:00,75.0,54.5,30.04,NE,51,0.0,5.0,49,0.00,,,0.00,WeatherCatV1.20B785,2013-09-13 19:51:00,
2013-09-13 14:56:00,74.8,54.3,30.03,NNE,24,3.0,3.0,49,0.00,,,0.00,WeatherCatV1.20B785,2013-09-13 19:56:00,
2013-09-13 15:01:00,74.6,54.2,30.04,ENE,65,3.0,5.0,49,0.00,,,0.00,WeatherCatV1.20B785,2013-09-13 20:01:00,
2013-09-13 15:06:00,74.5,55.7,30.04,North,351,0.0,4.0,52,0.00,,,0.00,WeatherCatV1.20B785,2013-09-13 20:06:00,
2013-09-13 15:11:00,74.5,55.2,30.04,North,355,3.0,4.0,51,0.00,,,0.00,WeatherCatV1.20B785,2013-09-13 20:11:00,
2013-09-13 15:16:00,74.5,55.7,30.03,NNE,13,0.0,7.0,52,0.00,,,0.00,WeatherCatV1.20B785,2013-09-13 20:16:00,
2013-09-13 15:21:00,74.5,55.7,30.03,ENE,77,1.0,4.0,52,0.00,,,0.00,WeatherCatV1.20B785,2013-09-13 20:21:00,
2013-09-13 15:26:00,74.8,56.0,30.04,North,355,0.0,4.0,52,0.00,,,0.00,WeatherCatV1.20B785,2013-09-13 20:26:00,
2013-09-13 15:31:00,75.0,52.2,30.03,ENE,76,1.0,2.0,45,0.00,,,0.00,WeatherCatV1.20B785,2013-09-13 20:31:00,
2013-09-13 15:36:00,75.0,52.8,30.03,East,88,2.0,7.0,46,0.00,,,0.00,WeatherCatV1.20B785,2013-09-13 20:36:00,
2013-09-13 15:41:00,75.0,54.0,30.03,SE,125,2.0,7.0,48,0.00,,,0.00,WeatherCatV1.20B785,2013-09-13 20:41:00,
2013-09-13 15:46:00,74.9,53.3,30.03,East,80,1.0,7.0,47,0.00,,,0.00,WeatherCatV1.20B785,2013-09-13 20:46:00,
2013-09-13 15:51:00,75.1,54.0,30.03,ENE,71,1.0,3.0,48,0.00,,,0.00,WeatherCatV1.20B785,2013-09-13 20:51:00,
2013-09-13 15:56:00,75.1,54.0,30.02,NE,46,4.0,5.0,48,0.00,,,0.00,WeatherCatV1.20B785,2013-09-13 20:56:00,
2013-09-13 16:01:00,74.9,53.3,30.02,East,82,0.0,3.0,47,0.00,,,0.00,WeatherCatV1.20B785,2013-09-13 21:01:00,
2013-09-13 16:06:00,75.0,54.5,30.02,NE,42,3.0,5.0,49,0.00,,,0.00,WeatherCatV1.20B785,2013-09-13 21:06:00,
2013-09-13 16:11:00,75.2,53.0,30.03,ENE,67,2.0,5.0,46,0.00,,,0.00,WeatherCatV1.20B785,2013-09-13 21:11:00,
2013-09-13 16:16:00,75.2,52.4,30.03,ESE,108,2.0,7.0,45,0.00,,,0.00,WeatherCatV1.20B785,2013-09-13 21:16:00,
2013-09-13 16:21:00,75.3,53.7,30.02,ENE,58,7.0,7.0,47,0.00,,,0.00,WeatherCatV1.20B785,2013-09-13 21:21:00,
2013-09-13 16:26:00,75.1,54.0,30.02,North,5,1.0,2.0,48,0.00,,,0.00,WeatherCatV1.20B785,2013-09-13 21:26:00,
2013-09-13 16:31:00,75.2,54.1,30.02,North,351,0.0,1.0,48,0.00,,,0.00,WeatherCatV1.20B785,2013-09-13 21:31:00,
2013-09-13 16:36:00,75.0,53.4,30.02,North,355,0.0,8.0,47,0.00,,,0.00,WeatherCatV1.20B785,2013-09-13 21:36:00,
2013-09-13 16:41:00,74.7,54.2,30.02,North,355,1.0,7.0,49,0.00,,,0.00,WeatherCatV1.20B785,2013-09-13 21:41:00,
2013-09-13 16:46:00,74.5,54.1,30.02,ENE,69,1.0,7.0,49,0.00,,,0.00,WeatherCatV1.20B785,2013-09-13 21:46:00,
2013-09-13 16:51:00,74.4,54.0,30.02,NNW,342,0.0,6.0,49,0.00,,,0.00,WeatherCatV1.20B785,2013-09-13 21:51:00,
2013-09-13 16:56:00,74.2,53.8,30.02,NE,48,1.0,5.0,49,0.00,,,0.00,WeatherCatV1.20B785,2013-09-13 21:56:00,
2013-09-13 17:01:00,73.9,52.4,30.02,ENE,60,5.0,9.0,47,0.00,,,0.00,WeatherCatV1.20B785,2013-09-13 22:01:00,
2013-09-13 17:06:00,73.5,52.0,30.02,NE,49,2.0,8.0,47,0.00,,,0.00,WeatherCatV1.20B785,2013-09-13 22:06:00,
2013-09-13 17:11:00,73.1,52.2,30.02,East,84,2.0,9.0,48,0.00,,,0.00,WeatherCatV1.20B785,2013-09-13 22:11:00,
2013-09-13 17:16:00,72.8,52.5,30.02,NE,46,4.0,6.0,49,0.00,,,0.00,WeatherCatV1.20B785,2013-09-13 22:16:00,
2013-09-13 17:21:00,72.5,53.3,30.02,ENE,69,2.0,3.0,51,0.00,,,0.00,WeatherCatV1.20B785,2013-09-13 22:21:00,
2013-09-13 17:26:00,72.2,53.0,30.02,East,80,2.0,5.0,51,0.00,,,0.00,WeatherCatV1.20B785,2013-09-13 22:26:00,
2013-09-13 17:31:00,72.0,53.4,30.02,NE,45,1.0,5.0,52,0.00,,,0.00,WeatherCatV1.20B785,2013-09-13 22:31:00,
2013-09-13 17:36:00,71.9,54.3,30.02,NE,42,0.0,1.0,54,0.00,,,0.00,WeatherCatV1.20B785,2013-09-13 22:36:00,
2013-09-13 17:41:00,71.7,53.1,30.02,NE,41,1.0,5.0,52,0.00,,,0.00,WeatherCatV1.20B785,2013-09-13 22:41:00,
2013-09-13 17:46:00,71.6,53.5,30.02,ENE,57,1.0,1.0,53,0.00,,,0.00,WeatherCatV1.20B785,2013-09-13 22:46:00,
2013-09-13 17:51:00,71.6,53.5,30.02,NE,38,0.0,1.0,53,0.00,,,0.00,WeatherCatV1.20B785,2013-09-13 22:51:00,
2013-09-13 17:56:00,71.6,54.6,30.02,NE,38,0.0,0.0,55,0.00,,,0.00,WeatherCatV1.20B785,2013-09-13 22:56:00,
2013-09-13 18:01:00,71.6,56.0,30.02,NE,38,0.0,0.0,58,0.00,,,0.00,WeatherCatV1.20B785,2013-09-13 23:01:00,
2013-09-13 18:06:00,71.6,57.4,30.02,NE,38,0.0,0.0,61,0.00,,,0.00,WeatherCatV1.20B785,2013-09-13 23:06:00,
2013-09-13 18:11:00,71.5,57.8,30.02,NE,38,0.0,0.0,62,0.00,,,0.00,WeatherCatV1.20B785,2013-09-13 23:11:00,
2013-09-13 18:16:00,71.2,57.5,30.02,NE,38,0.0,0.0,62,0.00,,,0.00,WeatherCatV1.20B785,2013-09-13 23:16:00,
2013-09-13 18:21:00,70.9,57.2,30.02,NE,38,0.0,0.0,62,0.00,,,0.00,WeatherCatV1.20B785,2013-09-13 23:21:00,
2013-09-13 18:26:00,70.6,57.8,30.02,NE,38,0.0,0.0,64,0.00,,,0.00,WeatherCatV1.20B785,2013-09-13 23:26:00,
2013-09-13 18:31:00,70.1,57.3,30.02,NE,38,0.0,0.0,64,0.00,,,0.00,WeatherCatV1.20B785,2013-09-13 23:31:00,
2013-09-13 18:36:00,69.7,57.8,30.02,NE,38,0.0,0.0,66,0.00,,,0.00,WeatherCatV1.20B785,2013-09-13 23:36:00,
2013-09-13 18:41:00,69.2,57.3,30.02,NE,38,0.0,0.0,66,0.00,,,0.00,WeatherCatV1.20B785,2013-09-13 23:41:00,
2013-09-13 18:46:00,68.8,57.4,30.02,NE,38,0.0,0.0,67,0.00,,,0.00,WeatherCatV1.20B785,2013-09-13 23:46:00,
2013-09-13 18:51:00,68.4,57.4,30.02,NE,38,0.0,0.0,68,0.00,,,0.00,WeatherCatV1.20B785,2013-09-13 23:51:00,
2013-09-13 18:56:00,67.9,57.3,30.02,NE,38,0.0,0.0,69,0.00,,,0.00,WeatherCatV1.20B785,2013-09-13 23:56:00,
2013-09-13 19:01:00,67.4,56.9,30.02,NE,38,0.0,0.0,69,0.00,,,0.00,WeatherCatV1.20B785,2013-09-14 00:01:00,
2013-09-13 19:06:00,67.0,56.5,30.02,NE,38,0.0,0.0,69,0.00,,,0.00,WeatherCatV1.20B785,2013-09-14 00:06:00,
2013-09-13 19:11:00,66.6,56.9,30.02,NE,38,0.0,0.0,71,0.00,,,0.00,WeatherCatV1.20B785,2013-09-14 00:11:00,
2013-09-13 19:16:00,66.1,56.8,30.02,NE,38,0.0,0.0,72,0.00,,,0.00,WeatherCatV1.20B785,2013-09-14 00:16:00,
2013-09-13 19:21:00,65.7,56.8,30.02,NE,38,0.0,0.0,73,0.00,,,0.00,WeatherCatV1.20B785,2013-09-14 00:21:00,
2013-09-13 19:26:00,65.2,56.7,30.02,NE,38,0.0,0.0,74,0.00,,,0.00,WeatherCatV1.20B785,2013-09-14 00:26:00,
2013-09-13 19:31:00,64.8,56.3,30.02,NE,38,0.0,0.0,74,0.00,,,0.00,WeatherCatV1.20B785,2013-09-14 00:31:00,
2013-09-13 19:36:00,64.3,56.6,30.02,NE,38,0.0,0.0,76,0.00,,,0.00,WeatherCatV1.20B785,2013-09-14 00:36:00,
2013-09-13 19:41:00,63.7,56.3,30.02,NE,38,0.0,0.0,77,0.00,,,0.00,WeatherCatV1.20B785,2013-09-14 00:41:00,
2013-09-13 19:46:00,63.2,55.9,30.02,NE,38,0.0,0.0,77,0.00,,,0.00,WeatherCatV1.20B785,2013-09-14 00:46:00,
2013-09-13 19:51:00,62.7,55.7,30.03,NE,38,0.0,0.0,78,0.00,,,0.00,WeatherCatV1.20B785,2013-09-14 00:51:00,
2013-09-13 19:56:00,62.2,55.2,30.03,NE,38,0.0,0.0,78,0.00,,,0.00,WeatherCatV1.20B785,2013-09-14 00:56:00,
2013-09-13 20:01:00,61.8,55.2,30.03,NE,38,0.0,0.0,79,0.00,,,0.00,WeatherCatV1.20B785,2013-09-14 01:01:00,
2013-09-13 20:06:00,61.4,55.2,30.03,NE,38,0.0,0.0,80,0.00,,,0.00,WeatherCatV1.20B785,2013-09-14 01:06:00,
2013-09-13 20:11:00,60.9,55.0,30.03,NE,38,0.0,0.0,81,0.00,,,0.00,WeatherCatV1.20B785,2013-09-14 01:11:00,
2013-09-13 20:16:00,60.4,54.2,30.03,NE,38,0.0,0.0,80,0.00,,,0.00,WeatherCatV1.20B785,2013-09-14 01:16:00,
2013-09-13 20:21:00,60.0,54.2,30.03,NE,38,0.0,0.0,81,0.00,,,0.00,WeatherCatV1.20B785,2013-09-14 01:21:00,
2013-09-13 20:26:00,59.6,53.8,30.04,NE,38,0.0,0.0,81,0.00,,,0.00,WeatherCatV1.20B785,2013-09-14 01:26:00,
2013-09-13 20:31:00,59.2,53.7,30.04,NE,38,0.0,0.0,82,0.00,,,0.00,WeatherCatV1.20B785,2013-09-14 01:31:00,
2013-09-13 20:36:00,58.9,53.4,30.04,NE,38,0.0,0.0,82,0.00,,,0.00,WeatherCatV1.20B785,2013-09-14 01:36:00,
2013-09-13 20:41:00,58.5,53.0,30.04,NE,38,0.0,0.0,82,0.00,,,0.00,WeatherCatV1.20B785,2013-09-14 01:41:00,
2013-09-13 20:46:00,58.1,53.0,30.04,NE,38,0.0,0.0,83,0.00,,,0.00,WeatherCatV1.20B785,2013-09-14 01:46:00,
2013-09-13 20:51:00,57.8,52.7,30.04,NE,38,0.0,0.0,83,0.00,,,0.00,WeatherCatV1.20B785,2013-09-14 01:51:00,
2013-09-13 20:56:00,57.5,52.7,30.04,NE,38,0.0,0.0,84,0.00,,,0.00,WeatherCatV1.20B785,2013-09-14 01:56:00,
2013-09-13 21:01:00,57.2,52.7,30.05,NE,38,0.0,0.0,85,0.00,,,0.00,WeatherCatV1.20B785,2013-09-14 02:01:00,
2013-09-13 21:06:00,56.8,52.3,30.05,NE,38,0.0,0.0,85,0.00,,,0.00,WeatherCatV1.20B785,2013-09-14 02:06:00,
2013-09-13 21:12:00,56.5,52.4,30.05,NE,38,0.0,0.0,86,0.00,,,0.00,WeatherCatV1.20B785,2013-09-14 02:12:00,
2013-09-13 21:17:00,56.3,52.2,30.05,NE,38,0.0,0.0,86,0.00,,,0.00,WeatherCatV1.20B785,2013-09-14 02:17:00,
2013-09-13 21:22:00,56.0,52.2,30.05,NE,38,0.0,0.0,87,0.00,,,0.00,WeatherCatV1.20B785,2013-09-14 02:22:00,
2013-09-13 21:27:00,55.9,52.1,30.05,NE,38,0.0,0.0,87,0.00,,,0.00,WeatherCatV1.20B785,2013-09-14 02:27:00,
2013-09-13 21:32:00,55.7,52.2,30.05,NE,38,0.0,0.0,88,0.00,,,0.00,WeatherCatV1.20B785,2013-09-14 02:32:00,
2013-09-13 21:37:00,55.5,52.0,30.05,NE,38,0.0,0.0,88,0.00,,,0.00,WeatherCatV1.20B785,2013-09-14 02:37:00,
2013-09-13 21:42:00,55.4,51.9,30.05,NE,38,0.0,0.0,88,0.00,,,0.00,WeatherCatV1.20B785,2013-09-14 02:42:00,
2013-09-13 21:47:00,55.2,51.7,30.06,NE,38,0.0,0.0,88,0.00,,,0.00,WeatherCatV1.20B785,2013-09-14 02:47:00,
2013-09-13 21:52:00,55.0,51.5,30.06,NE,38,0.0,0.0,88,0.00,,,0.00,WeatherCatV1.20B785,2013-09-14 02:52:00,
2013-09-13 21:57:00,54.8,51.6,30.05,NE,38,0.0,0.0,89,0.00,,,0.00,WeatherCatV1.20B785,2013-09-14 02:57:00,
2013-09-13 22:02:00,54.6,51.4,30.05,NE,38,0.0,0.0,89,0.00,,,0.00,WeatherCatV1.20B785,2013-09-14 03:02:00,
2013-09-13 22:07:00,54.5,51.3,30.06,NE,38,0.0,0.0,89,0.00,,,0.00,WeatherCatV1.20B785,2013-09-14 03:07:00,
2013-09-13 22:12:00,54.3,51.4,30.05,NE,38,0.0,0.0,90,0.00,,,0.00,WeatherCatV1.20B785,2013-09-14 03:12:00,
2013-09-13 22:17:00,54.2,51.3,30.06,NE,38,0.0,0.0,90,0.00,,,0.00,WeatherCatV1.20B785,2013-09-14 03:17:00,
2013-09-13 22:22:00,54.0,51.1,30.06,NE,38,0.0,0.0,90,0.00,,,0.00,WeatherCatV1.20B785,2013-09-14 03:22:00,
2013-09-13 22:27:00,53.9,51.3,30.06,NE,38,0.0,0.0,91,0.00,,,0.00,WeatherCatV1.20B785,2013-09-14 03:27:00,
2013-09-13 22:32:00,53.8,51.2,30.06,NE,38,0.0,0.0,91,0.00,,,0.00,WeatherCatV1.20B785,2013-09-14 03:32:00,
2013-09-13 22:37:00,53.7,51.1,30.06,NE,38,0.0,0.0,91,0.00,,,0.00,WeatherCatV1.20B785,2013-09-14 03:37:00,
2013-09-13 22:42:00,53.6,51.0,30.06,NE,38,0.0,0.0,91,0.00,,,0.00,WeatherCatV1.20B785,2013-09-14 03:42:00,
2013-09-13 22:47:00,53.5,50.9,30.06,NE,38,0.0,0.0,91,0.00,,,0.00,WeatherCatV1.20B785,2013-09-14 03:47:00,
2013-09-13 22:52:00,53.3,51.0,30.06,NE,38,0.0,0.0,92,0.00,,,0.00,WeatherCatV1.20B785,2013-09-14 03:52:00,
2013-09-13 22:57:00,53.3,51.0,30.06,NE,38,0.0,0.0,92,0.00,,,0.00,WeatherCatV1.20B785,2013-09-14 03:57:00,
2013-09-13 23:01:00,53.2,50.9,30.06,NE,38,0.0,0.0,92,0.00,,,0.00,WeatherCatV1.20B785,2013-09-14 04:01:00,
2013-09-13 23:02:00,53.2,50.9,30.06,NE,38,0.0,0.0,92,0.00,,,0.00,WeatherCatV1.20B785,2013-09-14 04:02:00,
2013-09-13 23:07:00,53.1,50.8,30.06,NE,38,0.0,0.0,92,0.00,,,0.00,WeatherCatV1.20B785,2013-09-14 04:07:00,
2013-09-13 23:12:00,53.0,50.7,30.06,NE,38,0.0,0.0,92,0.00,,,0.00,WeatherCatV1.20B785,2013-09-14 04:12:00,
2013-09-13 23:17:00,52.9,50.6,30.06,NE,38,0.0,0.0,92,0.00,,,0.00,WeatherCatV1.20B785,2013-09-14 04:17:00,
2013-09-13 23:22:00,52.8,50.5,30.06,NE,38,0.0,0.0,92,0.00,,,0.00,WeatherCatV1.20B785,2013-09-14 04:22:00,
2013-09-13 23:27:00,52.8,50.5,30.06,NE,38,0.0,0.0,92,0.00,,,0.00,WeatherCatV1.20B785,2013-09-14 04:27:00,
2013-09-13 23:32:00,52.7,50.7,30.06,NE,38,0.0,0.0,93,0.00,,,0.00,WeatherCatV1.20B785,2013-09-14 04:32:00,
2013-09-13 23:37:00,52.6,50.6,30.06,NE,38,0.0,0.0,93,0.00,,,0.00,WeatherCatV1.20B785,2013-09-14 04:37:00,
2013-09-13 23:42:00,52.6,50.6,30.06,NE,38,0.0,0.0,93,0.00,,,0.00,WeatherCatV1.20B785,2013-09-14 04:42:00,
2013-09-13 23:47:00,52.5,50.5,30.06,NE,38,0.0,0.0,93,0.00,,,0.00,WeatherCatV1.20B785,2013-09-14 04:47:00,
2013-09-13 23:52:00,52.5,50.5,30.07,NE,38,0.0,0.0,93,0.00,,,0.00,WeatherCatV1.20B785,2013-09-14 04:52:00,
2013-09-13 23:57:00,52.4,50.4,30.07,NE,38,0.0,0.0,93,0.00,,,0.00,WeatherCatV1.20B785,2013-09-14 04:57:00,